Regional Weather Roundup
Issued by NWS Newport/Morehead, NC

Current Version | Previous Version | Graphics & Text | Print | Product List | Glossary Off
Versions: 1 2 3 4 5 6 7 8 9 10 11 12 13 14 15 16 17 18 19 20 21 22 23 24 25 26 27 28 29 30 31 32 33 34 35 36 37 38 39 40 41 42 43 44 45 46 47 48 49 50

688
ASUS42 KMHX 231625
RWRMHX
WEATHER ROUNDUP FOR EASTERN NORTH CAROLINA
NATIONAL WEATHER SERVICE NEWPORT/MOREHEAD CITY NC
1200 PM EDT SUN APR 23 2017

NOTE: "FAIR" INDICATES FEW OR NO CLOUDS BELOW 12,000 FEET
WITH NO SIGNIFICANT WEATHER AND/OR OBSTRUCTIONS TO VISIBILITY

NCZ015>017-031-032-045>047-102-103-231700-
NORTH COAST

CITY           SKY/WX    TMP DP  RH WIND       PRES   REMARKS
EDENTON        CLOUDY    61  54  77 E10G18    30.06S
ELIZABETH CITY CLOUDY    59  54  83 NE17      30.06R
KITTY HAWK     CLOUDY    57  52  84 NE12      30.04S
MANTEO         CLOUDY    57  52  82 NE14G21   30.04F

$$

NCZ045>047-081-094-103-104-231700-
CENTRAL COAST

CITY           SKY/WX    TMP DP  RH WIND       PRES   REMARKS
FRISCO         CLOUDY    60  56  86 NE10G22   30.00F FOG

$$

NCZ095-097-098-100-101-231700-
SOUTHERN COAST

CITY           SKY/WX    TMP DP  RH WIND       PRES   REMARKS
BEAUFORT       CLOUDY    66  61  84 NE12      29.98F
CEDAR ISLAND   NOT AVBL
JACKSONVILLE   LGT RAIN  62  60  93 NE10      29.98S
PINEY ISLAND   CLOUDY   N/A N/A N/A NE16G26   29.99
WILMINGTON     LGT RAIN  62  62 100 NE9       29.97S FOG


$$

NCZ011>013-027>030-043-044-078>080-089-090>093-098-231700-
COASTAL PLAIN

CITY           SKY/WX    TMP DP  RH WIND       PRES   REMARKS
AHOSKIE        LGT RAIN  55  50  82 NE5       30.07S
CLINTON        CLOUDY    59  56  89 E7        30.00F
ELIZABETHTOWN  CLOUDY    60  56  88 CALM      29.98S
GOLDSBORO      CLOUDY    58  58  99 NE8       30.01R
GREENVILLE     CLOUDY    59  54  82 E9        30.06R
HAVELOCK       NOT AVBL
KENANSVILLE    CLOUDY    59  55  88 NE5       30.00F
KINSTON        CLOUDY    59  54  82 NE13      30.03S
NEW BERN       LGT RAIN  60  58  92 NE12      30.01F
RICHLANDS      CLOUDY    59  57  93 NE13      30.00S
ROCKY MOUNT    CLOUDY    57  54  89 NE7       30.06R
WASHINGTON     CLOUDY    58  54  85 NE9       30.04R
WHITEVILLE     CLOUDY    60  57  90 NE8       29.96S

$$

AMZ130-135-150-152-154-156-158-170-250-252-270-ANZ085-086-088-633-658-670-231700-
MARINE OBSERVATIONS

STATION/POSITION TIME  TEMP    WIND        PRES    WAVE   SWELL
                       AIR SEA DIR/SP/G            HT/PER HT/PER
                 (UTC) (F)     (DEG/KT/KT) (MB)    (FT/S) (FT/S)
CHESAPEAKE LIGHT NOT AVBL
64 E VA BEACH    1550   53 54   20/ 14/ 16 1017.7    5/11   3/11
DUCK             1600   55 63   20/ 19/ 22 1017.3
2 E DUCK         1600      61                N/A     5/ 6   2/11
OREGON INLET     1600   56 60   20/ 14/ 18 1016.8
13E OREGON INLT  1548      57                N/A     6/12   5/12
HATTERAS CG      1600   60 69   40/ 12/ 18 1015.6
DIAMOND BUOY     1550   67 74   30/ 16/ 17 1015.3    5/ 7   3/11
CAPE LOOKOUT     1600   63      40/ 19/ 22 1015.0
BEAUFORT LAB     1600   64 66   50/  9/ 16 1014.5
30 SE NEW RVR IN 1608   66      70/ 17/ 21 1014.4
30 SE NEW RVR IN 1543      71                N/A     5/ 5   2/11
27 SE WRIGHTSVLE 1608   68 71  100/ 17/ 23 1012.9
5 SE WRIGHTSVLE  1608   65 68   80/ 14/ 19 1014.5
225 S CAPE HAT   1550   73 75  180/ 10/ 10 1015.4    4/11   5/11
41 SE CHARLESTON 1610   75 74  190/  4/  6 1012.5

$$




USA.gov is the U.S. government's official web portal to all federal, state and local government web resources and services.